Retour au catalogue

ARIANE 5 R/B

ActifGTO
NORAD 27716·ROCKET BODY·🇫🇷 France

Lancé Apr 9, 2003 depuis Guiana Space Centre

Loading…

TLE

FraisSource: Space-Track

Époque: Sep 14, 2026, 21:27 UTC

1 27716U 03013C   26257.89418063 -.00000082  00000-0  17197-2 0  9999
2 27716   0.7968 177.9792 7072117 122.6515 206.0056  2.24037523191844

Suivez ARIANE 5 R/B en temps réel avec AllMySat

Download on the App Store